Location: Asheville, NC
(35.6000°N, 82.5500°W)
Time: 16:59:21
(UTC-05:00)

Vanguard 1 Rocket - Pass Details

Date: 12 February 2018
Orbit: 655 x 4222 km, 34.3° (Epoch: 17 February)

Event Time Altitude Azimuth Distance (km) Brightness Sun altitude
Exits shadow 05:35:14 26° 277° (W) 5,689 10.8 -21.8°
Maximum altitude 05:50:59 78° 198° (SSW) 2,997 9.9 -18.6°
Drops below altitude 10° 06:03:51 10° 114° (ESE) 4,299 12.0 -16.0°
Sets 06:06:26 0° 113° (ESE) 4,956 12.7 -15.5°
